Flag for Germany Weather past 2 weeks in Worms, Rhineland-Palatinate, Germany

Now
50 °F

Scattered clouds.


Feels Like: 46 °F
Forecast: 34 / 45 °F
Wind: 10 mph from Southwest

Location: Baden Wurttemberg - Neuostheim

Current Time: Mar 3, 2015 at 2:35:30 PM

Latest Report: Mar 3, 2015 at 1:50 PM


Visibility: N/A

Pressure: 30.12 "Hg

Humidity: 50%

Dew point: 32 °F

Location of WormsLocation

Historic Weather in Worms — Graph

°F

Worms temperature yesterday

Maximum temperature yesterday: 52 °F (at 3:50 PM)
Minimum temperature yesterday: 39 °F (at 5:20 PM)
Average temperature yesterday: 46 °F

Past Weeks' High & Low Weather Summary

 TemperatureHumidityPressure
High55 °F (Feb 20, 3:20 PM)100% (Feb 22, 7:50 AM)30.74 "Hg (Feb 22, 7:50 AM)
Low30 °F (Feb 19, 5:20 AM)35% (Mar 2, 3:20 PM)29.47 "Hg (Feb 23, 2:20 PM)
Average41 °F75%30.03 "Hg
* Reported Feb 16 1:20 PM — Mar 3 1:20 PM, Worms, Weather by CustomWeather, © 2015

Note: Actual official high and low records may vary slightly from our data, if they occured in-between our weather recording intervals... More about our weather records

Advertising

Worms weather history for previous 24 hours

 ConditionsComfort  
Time TempWeatherWind HumidityBarometerVisibility
1:20 PM
Tue, Mar 3
50 °FPassing clouds.9 mph50%30.15 "HgN/A
12:50 PM48 °FScattered clouds.9 mph54%30.15 "HgN/A
12:20 PM48 °FScattered clouds.10 mph54%30.18 "HgN/A
11:50 AM46 °FPartly sunny.9 mph57%30.18 "HgN/A
11:20 AM46 °FPassing clouds.9 mph53%30.18 "HgN/A
10:50 AM45 °FPassing clouds.9 mph61%30.21 "HgN/A
10:20 AM43 °FPassing clouds.9 mph66%30.21 "HgN/A
9:50 AM41 °FPassing clouds.9 mph70%30.21 "HgN/A
9:20 AM39 °FPassing clouds.9 mph70%30.21 "HgN/A
8:50 AM39 °FPassing clouds.8 mph70%30.21 "HgN/A
8:20 AM37 °FPassing clouds.6 mph75%30.18 "HgN/A
7:50 AM36 °FScattered clouds.7 mph81%30.18 "HgN/A
7:20 AM36 °FScattered clouds.7 mph81%30.18 "HgN/A
6:50 AM36 °FPassing clouds.6 mph81%30.18 "HgN/A
6:20 AM36 °FPassing clouds.6 mph81%30.18 "HgN/A
5:50 AM36 °FPassing clouds.7 mph81%30.18 "HgN/A
8:50 PM
Mon, Mar 2
43 °FPassing clouds.13 mph66%29.98 "HgN/A
8:20 PM41 °FPassing clouds.12 mph76%29.95 "HgN/A
7:50 PM41 °FPassing clouds.10 mph76%29.95 "HgN/A
7:20 PM41 °FPassing clouds.9 mph76%29.92 "HgN/A
6:50 PM43 °FPassing clouds.8 mph76%29.89 "HgN/A
6:20 PM41 °FPassing clouds.7 mph87%29.89 "HgN/A
5:20 PM39 °FScattered showers. Broken clouds.22 mph100%29.86 "HgN/A
4:50 PM48 °FBroken clouds.12 mph54%29.83 "HgN/A
4:20 PM50 °FPassing clouds.16 mph47%29.80 "HgN/A
3:50 PM52 °FPassing clouds.14 mph38%29.80 "HgN/A
3:20 PM50 °FSunny.16 mph35%29.80 "Hg10 mi
2:50 PM50 °FPassing clouds.12 mph40%29.77 "HgN/A
2:20 PM50 °FPassing clouds.12 mph40%29.77 "HgN/A
Weather by CustomWeather, © 2015

See weather overviewHow to use our weather pages